Location: STAR School
(35.3054°N, 111.2976°W)
Time: 16:49:22
(UTC-07:00)

PCSat - Visible Passes

Search period start: 15 October 2019 00:00
Search period end: 25 October 2019 00:00
Orbit: 784 x 795 km, 67.1° (Epoch: 14 October)

Date Brightness Start Highest point End Pass type
(mag) Time Alt. Az. Time Alt. Az. Time Alt. Az.
15 Oct 11.6 03:24:37 23° NE 03:24:37 23° NE 03:26:39 10° NE visible
15 Oct 10.9 05:05:22 21° NW 05:05:22 21° NW 05:09:07 10° N visible
16 Oct 12.4 02:55:04 12° NE 02:55:04 12° NE 02:55:25 10° NE visible
16 Oct 11.0 04:35:48 23° NNW 04:35:48 23° NNW 04:38:34 10° N visible
17 Oct 11.5 04:06:08 19° N 04:06:08 19° N 04:07:53 10° N visible
18 Oct 12.0 03:36:24 14° NNE 03:36:24 14° NNE 03:37:06 10° NNE visible
